H1 CPF 2 NER 2025 12 1 9 335 01 glonass141 H2 1908801 9141 44850 2025 12 1 0 0 0 2025 12 4 23 45 0 900 1 1 0 0 0 1 H9 10 0 61010 0.00000 0 25136119.588 4403393.430 -298317.957 10 0 61010 900.00000 0 25007486.948 4186429.500 2928932.893 10 0 61010 1800.00000 0 24471087.522 3949899.821 6099393.974 10 0 61010 2700.00000 0 23536359.031 3750388.336 9151632.126 10 0 61010 3600.00000 0 22225993.060 3641802.600 12026546.765 10 0 61010 4500.00000 0 20575066.392 3672875.570 14668504.695 10 0 61010 5400.00000 0 18629675.115 3884893.406 17026405.193 10 0 61010 6300.00000 0 16445128.792 4309744.438 19054655.858 10 0 61010 7200.00000 0 14083779.805 4968370.791 20714041.593 10 0 61010 8100.00000 0 11612577.596 5869687.327 21972471.269 10 0 61010 9000.00000 0 9100448.426 7010013.185 22805588.957 10 0 61010 9900.00000 0 6615608.077 8373040.113 23197239.019 10 0 61010 10800.00000 0 4222917.399 9930339.790 23139776.870 10 0 61010 11700.00000 0 1981388.684 11642390.314 22634219.819 10 0 61010 12600.00000 0 -58055.276 13460080.753 21690234.936 10 0 61010 13500.00000 0 -1854477.844 15326633.005 20325963.617 10 0 61010 14400.00000 0 -3378403.182 17179862.885 18567685.204 10 0 61010 15300.00000 0 -4612808.198 18954688.027 16449324.759 10 0 61010 16200.00000 0 -5553590.749 20585779.533 14011812.931 10 0 61010 17100.00000 0 -6209494.495 22010247.658 11302308.626 10 0 61010 18000.00000 0 -6601493.225 23170249.709 8373298.008 10 0 61010 18900.00000 0 -6761660.084 24015410.767 5281586.026 10 0 61010 19800.00000 0 -6731568.862 24504954.953 2087199.139 10 0 61010 20700.00000 0 -6560294.493 24609456.452 -1147779.858 10 0 61010 21600.00000 0 -6302097.281 24312135.031 -4360422.152 10 0 61010 22500.00000 0 -6013889.206 23609639.690 -7488184.347 10 0 61010 23400.00000 0 -5752590.399 22512285.645 -10470136.069 10 0 61010 24300.00000 0 -5572488.981 21043732.972 -13248158.665 10 0 61010 25200.00000 0 -5522717.623 19240119.085 -15768090.378 10 0 61010 26100.00000 0 -5644955.407 17148680.626 -17980794.320 10 0 61010 27000.00000 0 -5971454.054 14825922.155 -19843127.290 10 0 61010 27900.00000 0 -6523473.684 12335408.422 -21318789.618 10 0 61010 28800.00000 0 -7310195.735 9745273.049 -22379038.767 10 0 61010 29700.00000 0 -8328160.139 7125548.385 -23003252.451 10 0 61010 30600.00000 0 -9561251.383 4545428.722 -23179330.193 10 0 61010 31500.00000 0 -10981234.603 2070581.652 -22903925.696 10 0 61010 32400.00000 0 -12548819.316 -239379.961 -22182505.839 10 0 61010 33300.00000 0 -14215206.033 -2333160.126 -21029235.708 10 0 61010 34200.00000 0 -15924050.389 -4169682.113 -19466692.479 10 0 61010 35100.00000 0 -17613761.869 -5719552.799 -17525414.430 10 0 61010 36000.00000 0 -19220040.063 -6966029.363 -15243294.549 10 0 61010 36900.00000 0 -20678541.450 -7905449.850 -12664831.306 10 0 61010 37800.00000 0 -21927564.328 -8547111.915 -9840251.910 10 0 61010 38700.00000 0 -22910638.964 -8912607.307 -6824525.840 10 0 61010 39600.00000 0 -23578914.168 -9034642.561 -3676288.594 10 0 61010 40500.00000 0 -23893240.357 -8955397.897 -456697.218 10 0 61010 41400.00000 0 -23825862.170 -8724495.541 2771759.618 10 0 61010 42300.00000 0 -23361650.301 -8396664.770 5946473.494 10 0 61010 43200.00000 0 -22498821.746 -8029203.385 9005926.431 10 0 61010 44100.00000 0 -21249119.159 -7679343.312 11890876.106 10 0 61010 45000.00000 0 -19637442.573 -7401631.631 14545493.565 10 0 61010 45900.00000 0 -17700949.476 -7245437.124 16918432.199 10 0 61010 46800.00000 0 -15487661.035 -7252686.800 18963808.393 10 0 61010 47700.00000 0 -13054632.391 -7455926.880 20642076.094 10 0 61010 48600.00000 0 -10465762.595 -7876789.065 21920779.772 10 0 61010 49500.00000 0 -7789334.104 -8524925.970 22775172.531 10 0 61010 50400.00000 0 -5095382.616 -9397460.248 23188688.560 10 0 61010 51300.00000 0 -2453004.609 -10478970.814 23153261.605 10 0 61010 52200.00000 0 72287.617 -11742017.627 22669483.732 10 0 61010 53100.00000 0 2421055.529 -13148184.401 21746601.225 10 0 61010 54000.00000 0 4542166.951 -14649597.366 20402347.141 10 0 61010 54900.00000 0 6394680.311 -16190858.537 18662612.727 10 0 61010 55800.00000 0 7949303.136 -17711314.548 16560962.675 10 0 61010 56700.00000 0 9189364.579 -19147567.907 14138002.011 10 0 61010 57600.00000 0 10111261.533 -20436126.860 11440605.181 10 0 61010 58500.00000 0 10724359.454 -21516083.581 8521020.740 10 0 61010 59400.00000 0 11050351.674 -22331708.507 5435867.715 10 0 61010 60300.00000 0 11122103.667 -22834851.324 2245042.180 10 0 61010 61200.00000 0 10982030.572 -22987046.568 -989445.123 10 0 61010 62100.00000 0 10680076.281 -22761233.604 -4204677.479 10 0 61010 63000.00000 0 10271379.682 -22143016.686 -7338063.208 10 0 61010 63900.00000 0 9813727.332 -21131409.928 -10328564.080 10 0 61010 64800.00000 0 9364901.334 -19739033.868 -13117896.052 10 0 61010 65700.00000 0 8980036.001 -17991753.561 -15651677.645 10 0 61010 66600.00000 0 8709096.694 -15927772.060 -17880502.228 10 0 61010 67500.00000 0 8594589.163 -13596216.406 -19760912.174 10 0 61010 68400.00000 0 8669597.808 -11055274.954 -21256254.913 10 0 61010 69300.00000 0 8956237.174 -8369964.021 -22337403.533 10 0 61010 70200.00000 0 9464583.193 -5609617.495 -22983327.497 10 0 61010 71100.00000 0 10192130.050 -2845204.713 -23181502.302 10 0 61010 72000.00000 0 11123796.034 -146589.020 -22928150.224 10 0 61010 72900.00000 0 12232478.175 2420158.365 -22228307.855 10 0 61010 73800.00000 0 13480132.155 4795277.165 -21095719.610 10 0 61010 74700.00000 0 14819331.524 6927564.823 -19552559.889 10 0 61010 75600.00000 0 16195240.049 8776258.357 -17628989.989 10 0 61010 76500.00000 0 17547913.480 10312473.992 -15362559.064 10 0 61010 77400.00000 0 18814833.199 11520146.121 -12797461.581 10 0 61010 78300.00000 0 19933564.550 12396428.394 -9983666.424 10 0 61010 79200.00000 0 20844427.546 12951542.499 -6975935.375 10 0 61010 80100.00000 0 21493067.324 13208083.457 -3832750.771 10 0 61010 81000.00000 0 21832816.210 13199813.085 -615173.873 10 0 61010 81900.00000 0 21826748.308 12969994.664 2614343.381 10 0 61010 82800.00000 0 21449340.678 12569340.851 5793169.712 10 0 61010 83700.00000 0 20687671.944 12053662.808 8859705.326 10 0 61010 84600.00000 0 19542108.712 11481320.566 11754568.906 10 0 61010 85500.00000 0 18026451.640 10910582.490 14421738.178 10 0 61011 0.00000 0 16167535.694 10397005.044 16809622.562 10 0 61011 900.00000 0 14004300.393 9990942.360 18872049.430 10 0 61011 1800.00000 0 11586371.199 9735290.261 20569142.984 10 0 61011 2700.00000 0 8972207.205 9663557.698 21868084.392 10 0 61011 3600.00000 0 6226893.445 9798346.416 22743736.558 10 0 61011 4500.00000 0 3419667.159 10150301.747 23179123.898 10 0 61011 5400.00000 0 621278.987 10717578.311 23165758.492 10 0 61011 6300.00000 0 -2098703.451 11485843.299 22703806.751 10 0 61011 7200.00000 0 -4674539.774 12428817.966 21802093.314 10 0 61011 8100.00000 0 -7046801.061 13509335.917 20477941.580 10 0 61011 9000.00000 0 -9164592.567 14680875.455 18756852.939 10 0 61011 9900.00000 0 -10987423.719 15889503.599 16672029.568 10 0 61011 10800.00000 0 -12486648.337 17076151.972 14263748.403 10 0 61011 11700.00000 0 -13646415.300 18179130.621 11578596.739 10 0 61011 12600.00000 0 -14464089.817 19136775.218 8668582.700 10 0 61011 13500.00000 0 -14950127.284 19890116.866 5590136.508 10 0 61011 14400.00000 0 -15127404.498 20385461.976 2403020.985 10 0 61011 15300.00000 0 -15030035.818 20576772.736 -830827.999 10 0 61011 16200.00000 0 -14701723.842 20427746.447 -4048508.560 10 0 61011 17100.00000 0 -14193714.137 19913504.197 -7187383.357 10 0 61011 18000.00000 0 -13562440.729 19021815.565 -10186308.779 10 0 61011 18900.00000 0 -12866962.639 17753805.538 -12986837.675 10 0 61011 19800.00000 0 -12166300.885 16124111.806 -15534370.898 10 0 61011 20700.00000 0 -11516789.934 14160484.027 -17779233.880 10 0 61011 21600.00000 0 -10969557.027 11902840.504 -19677656.073 10 0 61011 22500.00000 0 -10568237.331 9401820.936 -21192633.226 10 0 61011 23400.00000 0 -10347022.752 6716895.379 -22294654.962 10 0 61011 24300.00000 0 -10329127.781 3914108.464 -22962283.105 10 0 61011 25200.00000 0 -10525737.798 1063553.247 -23182569.400 10 0 61011 26100.00000 0 -10935484.493 -1763319.481 -22951304.622 10 0 61011 27000.00000 0 -11544470.432 -4496443.962 -22273094.610 10 0 61011 27900.00000 0 -12326841.373 -7069819.829 -21161262.226 10 0 61011 28800.00000 0 -13245881.522 -9424018.443 -19637577.792 10 0 61011 29700.00000 0 -14255584.763 -11508411.229 -17731823.905 10 0 61011 30600.00000 0 -15302634.747 -13283028.008 -15481203.806 10 0 61011 31500.00000 0 -16328709.415 -14719969.043 -12929605.563 10 0 61011 32400.00000 0 -17273012.022 -15804313.584 -10126737.134 10 0 61011 33300.00000 0 -18074921.241 -16534488.967 -7127149.851 10 0 61011 34200.00000 0 -18676648.158 -16922087.109 -3989170.072 10 0 61011 35100.00000 0 -19025787.884 -16991138.489 -773760.430 10 0 61011 36000.00000 0 -19077658.310 -16776876.465 2456666.689 10 0 61011 36900.00000 0 -18797327.699 -16324045.959 5639459.920 10 0 61011 37800.00000 0 -18161246.240 -15684829.401 8712940.367 10 0 61011 38700.00000 0 -17158413.473 -14916478.500 11617590.328 10 0 61011 39600.00000 0 -15791033.095 -14078752.202 14297196.664 10 0 61011 40500.00000 0 -14074628.076 -13231268.819 16699927.460 10 0 61011 41400.00000 0 -12037611.408 -12430883.316 18779322.172 10 0 61011 42300.00000 0 -9720330.208 -11729199.210 20495177.323 10 0 61011 43200.00000 0 -7173622.417 -11170318.559 21814312.007 10 0 61011 44100.00000 0 -4456945.062 -10788923.300 22711199.720 10 0 61011 45000.00000 0 -1636150.442 -10608767.413 23168455.469 10 0 61011 45900.00000 0 1218999.300 -10641642.318 23177169.618 10 0 61011 46800.00000 0 4037478.202 -10886858.547 22737082.480 10 0 61011 47700.00000 0 6749695.449 -11331265.550 21856596.249 10 0 61011 48600.00000 0 9290137.421 -11949809.489 20552623.541 10 0 61011 49500.00000 0 11599844.973 -12706606.746 18850274.484 10 0 61011 50400.00000 0 13628624.385 -13556489.557 16782387.039 10 0 61011 51300.00000 0 15336900.969 -14446960.460 14388908.078 10 0 61011 52200.00000 0 16697138.515 -15320474.923 11716135.490 10 0 61011 53100.00000 0 17694765.255 -16116957.331 8815834.429 10 0 61011 54000.00000 0 18328567.240 -16776445.135 5744243.538 10 0 61011 54900.00000 0 18610532.011 -17241749.876 2560989.411 10 0 61011 55800.00000 0 18565148.462 -17461022.304 -672070.043 10 0 61011 56700.00000 0 18228191.783 -17390112.237 -3892050.873 10 0 61011 57600.00000 0 17645044.358 -16994621.845 -7036273.100 10 0 61011 58500.00000 0 16868623.490 -16251563.617 -10043490.590 10 0 61011 59400.00000 0 15957003.847 -15150550.813 -12855095.719 10 0 61011 60300.00000 0 14970835.850 -13694467.912 -15416274.038 10 0 61011 61200.00000 0 13970670.143 -11899590.738 -17677085.104 10 0 61011 62100.00000 0 13014302.428 -9795149.438 -19593447.203 10 0 61011 63000.00000 0 12154252.082 -7422351.285 -21128005.804 10 0 61011 63900.00000 0 11435482.159 -4832903.419 -22250868.102 10 0 61011 64800.00000 0 10893457.929 -2087096.878 -22940188.916 10 0 61011 65700.00000 0 10552626.379 748468.115 -23182596.466 10 0 61011 66600.00000 0 10425381.022 3603420.450 -22973449.843 10 0 61011 67500.00000 0 10511555.400 6406313.919 -22316923.533 10 0 61011 68400.00000 0 10798466.059 9087367.912 -21225917.873 10 0 61011 69300.00000 0 11261502.302 11581138.695 -19721797.760 10 0 61011 70200.00000 0 11865236.762 13829010.172 -17833965.402 10 0 61011 71100.00000 0 12565008.737 15781400.836 -15599276.095 10 0 61011 72000.00000 0 13308912.292 17399595.752 -13061309.164 10 0 61011 72900.00000 0 14040104.033 18657128.424 -10269508.985 10 0 61011 73800.00000 0 14699332.196 19540656.500 -7278213.517 10 0 61011 74700.00000 0 15227579.466 20050296.649 -4145590.004 10 0 61011 75600.00000 0 15568707.447 20199406.797 -932499.177 10 0 61011 76500.00000 0 15671990.943 20013827.089 2298689.431 10 0 61011 77400.00000 0 15494435.148 19530613.565 5485307.609 10 0 61011 78300.00000 0 15002778.328 18796319.645 8565600.417 10 0 61011 79200.00000 0 14175096.039 17864899.079 11479916.566 10 0 61011 80100.00000 0 13001939.858 16795319.502 14171854.542 10 0 61011 81000.00000 0 11486963.163 15648987.243 16589343.042 10 0 61011 81900.00000 0 9647007.868 14487091.409 18685635.824 10 0 61011 82800.00000 0 7511648.332 13367978.112 20420202.936 10 0 61011 83700.00000 0 5122210.921 12344663.890 21759502.462 10 0 61011 84600.00000 0 2530309.051 11462591.331 22677619.184 10 0 61011 85500.00000 0 -204046.737 10757719.608 23156759.006 10 0 61012 0.00000 0 -3014686.731 10255028.726 23187590.467 10 0 61012 900.00000 0 -5831778.738 9967499.002 22769427.208 10 0 61012 1800.00000 0 -8584478.352 9895608.708 21910247.893 10 0 61012 2700.00000 0 -11203630.025 10027370.051 20626552.807 10 0 61012 3600.00000 0 -13624405.070 10338903.262 18943058.767 10 0 61012 4500.00000 0 -15788770.052 10795525.359 16892237.052 10 0 61012 5400.00000 0 -17647683.803 11353309.144 14513701.634 10 0 61012 6300.00000 0 -19162932.098 11961048.215 11853457.899 10 0 61012 7200.00000 0 -20308523.484 12562546.466 8963024.811 10 0 61012 8100.00000 0 -21071587.517 13099136.447 5898446.167 10 0 61012 9000.00000 0 -21452737.074 13512320.733 2719209.142 10 0 61012 9900.00000 0 -21465878.659 13746424.536 -512909.375 10 0 61012 10800.00000 0 -21137477.858 13751146.656 -3735046.254 10 0 61012 11700.00000 0 -20505310.200 13483899.522 -6884481.556 10 0 61012 12600.00000 0 -19616749.752 12911837.534 -9899869.089 10 0 61012 13500.00000 0 -18526667.670 12013485.818 -12722442.964 10 0 61012 14400.00000 0 -17295029.841 10779898.286 -15297175.361 10 0 61012 15300.00000 0 -15984295.787 9215293.918 -17573861.574 10 0 61012 16200.00000 0 -14656729.654 7337142.414 -19508109.972 10 0 61012 17100.00000 0 -13371737.792 5175693.916 -21062216.635 10 0 61012 18000.00000 0 -12183346.332 2772971.271 -22205906.822 10 0 61012 18900.00000 0 -11137925.882 181266.255 -22916928.475 10 0 61012 19800.00000 0 -10272259.786 -2538797.778 -23181486.044 10 0 61012 20700.00000 0 -9612037.430 -5320555.899 -22994506.330 10 0 61012 21600.00000 0 -9170835.760 -8093848.574 -22359731.531 10 0 61012 22500.00000 0 -8949631.182 -10787719.150 -21289638.174 10 0 61012 23400.00000 0 -8936861.360 -13333149.168 -19805184.132 10 0 61012 24300.00000 0 -9109032.923 -15665717.478 -17935389.325 10 0 61012 25200.00000 0 -9431847.984 -17728072.497 -15716758.961 10 0 61012 26100.00000 0 -9861800.350 -19472115.009 -13192561.280 10 0 61012 27000.00000 0 -10348172.563 -20860801.301 -10411974.602 10 0 61012 27900.00000 0 -10835348.052 -21869492.592 -7429120.968 10 0 61012 28800.00000 0 -11265339.600 -22486795.888 -4302005.944 10 0 61012 29700.00000 0 -11580426.434 -22714862.967 -1091385.819 10 0 61012 30600.00000 0 -11725787.973 -22569136.951 2140415.235 10 0 61012 31500.00000 0 -11652022.784 -22077559.109 5330714.622 10 0 61012 32400.00000 0 -11317446.467 -21279271.064 8417683.774 10 0 61012 33300.00000 0 -10690071.819 -20222868.420 11341540.166 10 0 61012 34200.00000 0 -9749188.262 -18964280.281 14045696.162 10 0 61012 35100.00000 0 -8486474.476 -17564364.256 16477843.173 10 0 61012 36000.00000 0 -6906597.714 -16086317.893 18590951.157 10 0 61012 36900.00000 0 -5027274.661 -14593014.564 20344165.316 10 0 61012 37800.00000 0 -2878790.860 -13144374.452 21703584.027 10 0 61012 38700.00000 0 -502997.849 -11794879.361 22642904.299 10 0 61012 39600.00000 0 2048171.475 -10591333.860 23143923.480 10 0 61012 40500.00000 0 4714609.269 -9570964.882 23196888.415 10 0 61012 41400.00000 0 7430283.788 -8759937.940 22800685.836 10 0 61012 42300.00000 0 10125743.790 -8172351.054 21962870.341 10 0 61012 43200.00000 0 12730774.618 -7809747.940 20699528.944 10 0 61012 44100.00000 0 15177097.757 -7661170.833 19034983.904 10 0 61012 45000.00000 0 17401003.433 -7703751.147 17001338.232 10 0 61012 45900.00000 0 19345808.033 -7903813.985 14637871.105 10 0 61012 46800.00000 0 20964034.734 -8218451.096 11990293.198 10 0 61012 47700.00000 0 22219226.494 -8597497.110 9109874.735 10 0 61012 48600.00000 0 23087315.268 -8985826.640 6052461.837 10 0 61012 49500.00000 0 23557489.379 -9325875.804 2877399.168 10 0 61012 50400.00000 0 23632521.597 -9560281.675 -353620.669 10 0 61012 51300.00000 0 23328543.091 -9634527.496 -3577758.692 10 0 61012 52200.00000 0 22674271.762 -9499480.647 -6732258.282 10 0 61012 53100.00000 0 21709726.737 -9113714.332 -9755676.282 10 0 61012 54000.00000 0 20484482.841 -8445512.771 -12589091.367 10 0 61012 54900.00000 0 19055538.674 -7474472.881 -15177264.830 10 0 61012 55800.00000 0 17484888.637 -6192632.472 -17469729.811 10 0 61012 56700.00000 0 15836901.980 -4605075.220 -19421786.500 10 0 61012 57600.00000 0 14175620.241 -2729984.975 -20995382.929 10 0 61012 58500.00000 0 12562087.860 -598145.600 -22159863.410 10 0 61012 59400.00000 0 11051829.155 1748093.824 -22892569.619 10 0 61012 60300.00000 0 9692578.342 4256345.766 -23179282.481 10 0 61012 61200.00000 0 8522358.260 6866139.427 -23014496.386 10 0 61012 62100.00000 0 7567988.304 9511222.619 -22401520.747 10 0 61012 63000.00000 0 6844083.564 12122114.112 -21352407.426 10 0 61012 63900.00000 0 6352586.118 14628799.629 -19887706.056 10 0 61012 64800.00000 0 6082846.705 16963458.855 -18036052.708 10 0 61012 65700.00000 0 6012251.546 19063109.630 -15833600.586 10 0 61012 66600.00000 0 6107366.072 20872059.137 -13323304.593 10 0 61012 67500.00000 0 6325545.378 22344060.260 -10554074.411 10 0 61012 68400.00000 0 6616941.721 23444083.841 -7579813.286 10 0 61012 69300.00000 0 6926822.689 24149633.866 -4458361.976 10 0 61012 70200.00000 0 7198100.856 24451552.052 -1250369.010 10 0 61012 71100.00000 0 7373967.116 24354279.804 1981890.213 10 0 61012 72000.00000 0 7400515.856 23875568.338 5175722.105 10 0 61012 72900.00000 0 7229250.919 23045650.906 8269227.741 10 0 61012 73800.00000 0 6819366.653 21905913.344 11202496.421 10 0 61012 74700.00000 0 6139708.158 20507119.949 13918757.162 10 0 61012 75600.00000 0 5170328.594 18907269.773 16365466.528 10 0 61012 76500.00000 0 3903578.330 17169173.392 18495312.760 10 0 61012 77400.00000 0 2344680.383 15357851.285 20267117.917 10 0 61012 78300.00000 0 511767.784 13537861.795 21646621.981 10 0 61012 79200.00000 0 -1564619.338 11770669.098 22607135.102 10 0 61012 80100.00000 0 -3842557.058 10112159.598 23130046.547 10 0 61012 81000.00000 0 -6270240.287 8610408.738 23205181.501 10 0 61012 81900.00000 0 -8787904.140 7303789.865 22830999.312 10 0 61012 82800.00000 0 -11330086.358 6219502.716 22014629.476 10 0 61012 83700.00000 0 -13828139.003 5372582.001 20771744.184 10 0 61012 84600.00000 0 -16212887.304 4765426.954 19126269.031 10 0 61012 85500.00000 0 -18417326.915 4387871.477 17109936.153 10 0 61013 0.00000 0 -20379248.698 4217792.285 14761687.110 10 0 61013 900.00000 0 -22043683.554 4222230.114 12126934.038 10 0 61013 1800.00000 0 -23365063.017 4358977.847 9256695.009 10 0 61013 2700.00000 0 -24309008.532 4578569.147 6206614.747 10 0 61013 3600.00000 0 -24853671.028 4826584.523 3035891.722 10 0 61013 4500.00000 0 -24990564.573 5046177.483 -193869.302 10 0 61013 5400.00000 0 -24724857.589 5180713.659 -3419856.843 10 0 61013 6300.00000 0 -24075108.070 5176410.377 -6579280.689 10 0 61013 7200.00000 0 -23072452.834 4984863.568 -9610603.518 10 0 61013 8100.00000 0 -21759284.143 4565353.255 -12454751.036 10 0 61013 9000.00000 0 -20187469.076 3886827.971 -15056275.763 10 0 61013 9900.00000 0 -18416186.678 2929481.975 -17364450.387 10 0 61013 10800.00000 0 -16509474.399 1685856.442 -19334268.161 10 0 61013 11700.00000 0 -14533587.755 161416.175 -20927329.831 10 0 61013 12600.00000 0 -12554285.069 -1625424.175 -22112599.005 10 0 61013 13500.00000 0 -10634152.220 -3643826.842 -22867010.823 10 0 61013 14400.00000 0 -8830080.297 -5851589.437 -23175921.948 10 0 61013 15300.00000 0 -7191002.358 -8196691.351 -23033393.187 10 0 61013 16200.00000 0 -5755984.094 -10619263.540 -22442299.621 10 0 61013 17100.00000 0 -4552747.879 -13053899.211 -21414266.589 10 0 61013 18000.00000 0 -3596691.087 -15432208.590 -19969433.374 10 0 61013 18900.00000 0 -2890438.351 -17685510.731 -18136049.887 10 0 61013 19800.00000 0 -2423944.719 -19747549.728 -15949914.879 10 0 61013 20700.00000 0 -2175143.298 -21557121.688 -13453667.380 10 0 61013 21600.00000 0 -2111107.911 -23060502.866 -10695945.867 10 0 61013 22500.00000 0 -2189679.669 -24213577.881 -7730432.241 10 0 61013 23400.00000 0 -2361486.846 -24983579.654 -4614799.943 10 0 61013 24300.00000 0 -2572271.125 -25350369.349 -1409587.326 10 0 61013 25200.00000 0 -2765420.611 -25307203.976 1822981.313 10 0 61013 26100.00000 0 -2884601.695 -24860960.964 5020203.647 10 0 61013 27000.00000 0 -2876378.057 -24031811.839 8120112.559 10 0 61013 27900.00000 0 -2692706.111 -22852360.082 11062671.249 10 0 61013 28800.00000 0 -2293201.760 -21366280.531 13790927.357 10 0 61013 29700.00000 0 -1647083.287 -19626518.089 16252104.437 10 0 61013 30600.00000 0 -734709.013 -17693121.523 18398610.654 10 0 61013 31500.00000 0 451354.587 -15630802.730 20188946.334 10 0 61013 32400.00000 0 1905779.085 -13506322.755 21588494.194 10 0 61013 33300.00000 0 3610458.157 -11385812.466 22570178.322 10 0 61013 34200.00000 0 5535030.938 -9332138.113 23114980.374 10 0 61013 35100.00000 0 7637924.127 -7402419.809 23212303.980 10 0 61013 36000.00000 0 9867871.130 -5645804.536 22860180.880 10 0 61013 36900.00000 0 12165846.994 -4101584.838 22065314.904 10 0 61013 37800.00000 0 14467340.862 -2797740.244 20842962.556 10 0 61013 38700.00000 0 16704873.605 -1749961.306 19216651.605 10 0 61013 39600.00000 0 18810657.834 -961196.524 17217741.864 10 0 61013 40500.00000 0 20719291.131 -421741.013 14884835.088 10 0 61013 41400.00000 0 22370371.323 -109863.538 12263043.698 10 0 61013 42300.00000 0 23710925.048 7053.893 9403130.896 10 0 61013 43200.00000 0 24697547.955 -29088.841 6360537.405 10 0 61013 44100.00000 0 25298166.177 -169113.017 3194312.631 10 0 61013 45000.00000 0 25493344.006 -358878.013 -34029.567 10 0 61013 45900.00000 0 25277081.376 -541814.110 -3261708.377 10 0 61013 46800.00000 0 24657066.075 -661563.389 -6425903.167 10 0 61013 47700.00000 0 23654368.541 -664615.836 -9464985.496 10 0 61013 48600.00000 0 22302590.908 -502827.509 -12319730.917 10 0 61013 49500.00000 0 20646505.244 -135712.264 -14934485.667 10 0 61013 50400.00000 0 18740237.885 467591.985 -17258264.116 10 0 61013 51300.00000 0 16645076.297 1326767.732 -19245754.350 10 0 61013 52200.00000 0 14426990.983 2449240.784 -20858211.234 10 0 61013 53100.00000 0 12153977.182 3829628.789 -22064218.749 10 0 61013 54000.00000 0 9893328.600 5449740.061 -22840306.282 10 0 61013 54900.00000 0 7708958.090 7279123.815 -23171406.703 10 0 61013 55800.00000 0 5658877.969 9276149.372 -23051147.407 10 0 61013 56700.00000 0 3792945.508 11389569.313 -22481969.003 10 0 61013 57600.00000 0 2150967.559 13560501.138 -21475069.820 10 0 61013 58500.00000 0 761242.820 15724744.148 -20050177.959 10 0 61013 59400.00000 0 -360398.610 17815334.260 -18235155.974 10 0 61013 60300.00000 0 -1211019.914 19765229.470 -16065446.602 10 0 61013 61200.00000 0 -1800450.779 21510013.259 -13583371.078 10 0 61013 62100.00000 0 -2150616.827 22990502.684 -10837294.401 10 0 61013 63000.00000 0 -2294355.833 24155152.050 -7880674.527 10 0 61013 63900.00000 0 -2273772.883 24962151.830 -4771014.707 10 0 61013 64800.00000 0 -2138205.885 25381135.578 -1568739.994 10 0 61013 65700.00000 0 -1941889.014 25394424.198 1663979.688 10 0 61013 66600.00000 0 -1741414.049 24997756.546 4864436.611 10 0 61013 67500.00000 0 -1593097.674 24200476.995 7970598.788 10 0 61013 68400.00000 0 -1550366.280 23025173.318 10922306.532 10 0 61013 69300.00000 0 -1661268.672 21506781.161 13662429.131 10 0 61013 70200.00000 0 -1966221.236 19691193.402 16137959.909 10 0 61013 71100.00000 0 -2496080.076 17633432.943 18301029.448 10 0 61013 72000.00000 0 -3270620.741 15395465.220 20109818.504 10 0 61013 72900.00000 0 -4297489.039 13043741.126 21529354.339 10 0 61013 73800.00000 0 -5571666.935 10646571.691 22532176.408 10 0 61013 74700.00000 0 -7075476.265 8271442.399 23098859.761 10 0 61013 75600.00000 0 -8779121.009 5982377.137 23218387.019 10 0 61013 76500.00000 0 -10641746.824 3837459.524 22888362.345 10 0 61013 77400.00000 0 -12612975.423 1886612.923 22115063.395 10 0 61013 78300.00000 0 -14634851.870 169729.847 20913329.882 10 0 61013 79200.00000 0 -16644125.837 -1284772.635 19306290.063 10 0 61013 80100.00000 0 -18574773.750 -2460912.109 17324929.160 10 0 61013 81000.00000 0 -20360658.431 -3355575.024 15007506.550 10 0 61013 81900.00000 0 -21938216.530 -3978407.738 12398831.267 10 0 61013 82800.00000 0 -23249062.103 -4351168.638 9549408.234 10 0 61013 83700.00000 0 -24242397.475 -4506568.051 6514470.342 10 0 61013 84600.00000 0 -24877129.780 -4486644.285 3352913.996 10 0 61013 85500.00000 0 -25123603.202 -4340743.872 126158.225 99